Weather History for La Grange, TX

Change the Weather History Date:

Tuesday, February 19, 2013

  Actual Average (KAUS) Record (KAUS)
Temperature  
Mean Temperature 56 °F 53 °F  
Max Temperature 69 °F 66 °F 92 °F (1986)
Min Temperature 42 °F 40 °F 23 °F (1978)
Degree Days  
Heating Degree Days 10 13  
Month to date heating degree days 268  
Since 1 July heating degree days 1510  
Cooling Degree Days 0 0  
Month to date cooling degree days 0  
Year to date cooling degree days 5  
Growing Degree Days 6 (Base 50)    
Moisture  
Dew Point 37 °F    
Average Humidity 49    
Maximum Humidity 87    
Minimum Humidity 25    
Precipitation  
Precipitation 0.00 in 0.08 in 0.48 in (1967)
Month to date precipitation 1.59  
Year to date precipitation 3.82  
Snow  
Snow 0.00 in - - ()
Month to date snowfall  
Since 1 July snowfall  
Snow Depth -    
Sea Level Pressure  
Sea Level Pressure 30.16 in    
Wind  
Wind Speed 5 mph (ENE)    
Max Wind Speed 13 mph    
Max Gust Speed 18 mph    
Visibility 10 miles    
Events      
T = Trace of Precipitation, MM = Missing Value Source: NWS Daily Summary

Daily Weather History Graph

Daily Weather History Graph

Search for Another Location

Airport:

Trip Planner

Search our weather history database for the weather conditions in past years. The results will help you decide how hot, cold, wet, or windy it might be!

Date:

Astronomy

Feb. 19, 2013 Rise Set
Actual Time 7:03 AM CST 6:19 PM CST
Civil Twilight 6:39 AM CST 6:44 PM CST
Nautical Twilight 6:11 AM CST 7:12 PM CST
Astronomical Twilight 5:43 AM CST 7:39 PM CST
Moon 1:05 PM CST (2/19) 2:23 AM CST (2/19)
Length of Visible Light 12h 04m
Length of Day
11h 16m
Waxing Gibbous, 67% of the Moon is Illuminated
Feb 19
Waxing Gibbous
Feb 25
Full
Mar 4
Last Quarter
Mar 11
New
Mar 19
First Quarter

Hourly Weather History & Observations

Time (CST) Temp. Windchill Dew Point Humidity Pressure Visibility Wind Dir Wind Speed Gust Speed Precip Events Conditions
12:15 AM 59.0 °F - 37.4 °F 45% 30.09 in 10.0 mi NNE 4.6 mph - N/A   Clear
12:35 AM 59.0 °F - 37.4 °F 45% 30.09 in 10.0 mi NNE 6.9 mph - N/A   Clear
12:55 AM 59.0 °F - 37.4 °F 45% 30.10 in 10.0 mi NNE 5.8 mph - N/A   Clear
1:15 AM 57.2 °F - 39.2 °F 51% 30.10 in 10.0 mi NNE 4.6 mph - N/A   Clear
1:35 AM 55.4 °F - 39.2 °F 54% 30.10 in 10.0 mi NNE 3.5 mph - N/A   Clear
1:55 AM 53.6 °F - 39.2 °F 58% 30.09 in 10.0 mi NE 3.5 mph - N/A   Clear
2:15 AM 55.4 °F - 39.2 °F 54% 30.09 in 10.0 mi NE 4.6 mph - N/A   Clear
2:35 AM 53.6 °F - 39.2 °F 58% 30.11 in 10.0 mi Calm Calm - N/A   Clear
2:55 AM 53.6 °F - 41.0 °F 62% 30.11 in 10.0 mi East 3.5 mph - N/A   Clear
3:15 AM 53.6 °F - 39.2 °F 58% 30.12 in 10.0 mi Calm Calm - N/A   Clear
3:35 AM 53.6 °F - 37.4 °F 54% 30.12 in 10.0 mi Calm Calm - N/A   Clear
3:55 AM 51.8 °F - 37.4 °F 58% 30.12 in 10.0 mi Calm Calm - N/A   Clear
4:15 AM 51.8 °F - 37.4 °F 58% 30.14 in 10.0 mi Calm Calm - N/A   Clear
4:35 AM 50.0 °F - 39.2 °F 66% 30.14 in 10.0 mi Calm Calm - N/A   Clear
4:55 AM 46.4 °F 45.2 °F 39.2 °F 76% 30.14 in 10.0 mi North 3.5 mph - N/A   Clear
5:15 AM 48.2 °F - 39.2 °F 71% 30.15 in 10.0 mi Calm Calm - N/A   Clear
5:35 AM 44.6 °F - 39.2 °F 81% 30.15 in 10.0 mi Calm Calm - N/A   Clear
5:55 AM 44.6 °F - 39.2 °F 81% 30.17 in 10.0 mi Calm Calm - N/A   Clear
6:15 AM 44.6 °F - 39.2 °F 81% 30.17 in 10.0 mi Calm Calm - N/A   Clear
6:35 AM 42.8 °F 40.1 °F 39.2 °F 87% 30.18 in 10.0 mi North 4.6 mph - N/A   Clear
6:55 AM 42.8 °F 40.1 °F 37.4 °F 81% 30.19 in 10.0 mi North 4.6 mph - N/A   Clear
7:15 AM 46.4 °F - 39.2 °F 76% 30.19 in 10.0 mi Calm Calm - N/A   Clear
7:35 AM 44.6 °F - 39.2 °F 81% 30.20 in 10.0 mi Calm Calm - N/A   Clear
7:55 AM 46.4 °F - 39.2 °F 76% 30.22 in 10.0 mi Calm Calm - N/A   Clear
8:15 AM 46.4 °F - 39.2 °F 76% 30.23 in 10.0 mi Calm Calm - N/A   Clear
8:35 AM 50.0 °F - 41.0 °F 71% 30.24 in 10.0 mi North 3.5 mph - N/A   Clear
8:55 AM 51.8 °F - 41.0 °F 67% 30.24 in 10.0 mi NE 3.5 mph - N/A   Clear
9:15 AM 53.6 °F - 41.0 °F 62% 30.25 in 10.0 mi NE 5.8 mph - N/A   Clear
9:35 AM 57.2 °F - 37.4 °F 48% 30.25 in 10.0 mi ENE 10.4 mph - N/A   Clear
9:55 AM 59.0 °F - 35.6 °F 42% 30.24 in 10.0 mi East 11.5 mph 18.4 mph N/A   Clear
10:15 AM 59.0 °F - 35.6 °F 42% 30.23 in 10.0 mi ENE 9.2 mph 18.4 mph N/A   Clear
10:35 AM 59.0 °F - 35.6 °F 42% 30.24 in 10.0 mi ENE 11.5 mph 16.1 mph N/A   Clear
10:55 AM 60.8 °F - 35.6 °F 39% 30.24 in 10.0 mi NE 9.2 mph - N/A   Clear
11:15 AM 60.8 °F - 33.8 °F 36% 30.24 in 10.0 mi ENE 9.2 mph - N/A   Clear
11:35 AM 62.6 °F - 33.8 °F 34% 30.25 in 10.0 mi NNE 5.8 mph - N/A   Clear
11:55 AM 62.6 °F - 33.8 °F 34% 30.25 in 10.0 mi NE 8.1 mph - N/A   Clear
12:15 PM 64.4 °F - 33.8 °F 32% 30.24 in 10.0 mi ENE 8.1 mph - N/A   Clear
12:35 PM 64.4 °F - 33.8 °F 32% 30.24 in 10.0 mi ENE 8.1 mph - N/A   Clear
12:55 PM 64.4 °F - 33.8 °F 32% 30.23 in 10.0 mi ENE 5.8 mph - N/A   Clear
1:15 PM 66.2 °F - 32.0 °F 28% 30.21 in 10.0 mi ENE 9.2 mph - N/A   Clear
1:35 PM 66.2 °F - 32.0 °F 28% 30.19 in 10.0 mi ENE 5.8 mph - N/A   Clear
1:55 PM 68.0 °F - 32.0 °F 26% 30.18 in 10.0 mi East 9.2 mph - N/A   Clear
2:15 PM 68.0 °F - 32.0 °F 26% 30.17 in 10.0 mi East 9.2 mph - N/A   Clear
2:35 PM 68.0 °F - 33.8 °F 28% 30.16 in 10.0 mi ENE 9.2 mph - N/A   Clear
2:55 PM 68.0 °F - 32.0 °F 26% 30.15 in 10.0 mi ESE 6.9 mph 17.3 mph N/A   Clear
3:15 PM 69.8 °F - 32.0 °F 25% 30.14 in 10.0 mi ESE 9.2 mph - N/A   Clear
3:35 PM 68.0 °F - 33.8 °F 28% 30.13 in 10.0 mi ENE 12.7 mph 16.1 mph N/A   Clear
3:55 PM 68.0 °F - 33.8 °F 28% 30.12 in 10.0 mi East 11.5 mph - N/A   Clear
4:15 PM 69.8 °F - 33.8 °F 27% 30.12 in 10.0 mi ESE 6.9 mph - N/A   Clear
4:35 PM 68.0 °F - 32.0 °F 26% 30.12 in 10.0 mi East 9.2 mph - N/A   Clear
4:55 PM 68.0 °F - 32.0 °F 26% 30.12 in 10.0 mi ENE 8.1 mph - N/A   Clear
5:15 PM 68.0 °F - 32.0 °F 26% 30.12 in 10.0 mi East 6.9 mph - N/A   Clear
5:35 PM 66.2 °F - 33.8 °F 30% 30.12 in 10.0 mi ESE 6.9 mph - N/A   Clear
6:35 PM 64.4 °F - 33.8 °F 32% 30.12 in 10.0 mi East 3.5 mph - N/A   Clear
6:55 PM 62.6 °F - 35.6 °F 37% 30.12 in 10.0 mi ESE 3.5 mph - N/A   Clear
7:15 PM 62.6 °F - 35.6 °F 37% 30.12 in 10.0 mi ESE 3.5 mph - N/A   Clear
7:55 PM 60.8 °F - 37.4 °F 42% 30.12 in 10.0 mi ESE 3.5 mph - N/A   Clear
8:35 PM 59.0 °F - 41.0 °F 51% 30.12 in 10.0 mi SE 5.8 mph - N/A   Clear
8:55 PM 59.0 °F - 39.2 °F 48% 30.12 in 10.0 mi ESE 6.9 mph - N/A   Clear
9:15 PM 59.0 °F - 39.2 °F 48% 30.12 in 10.0 mi SE 4.6 mph - N/A   Clear
9:55 PM 59.0 °F - 39.2 °F 48% 30.12 in 10.0 mi ESE 5.8 mph - N/A   Clear
10:15 PM 59.0 °F - 41.0 °F 51% 30.13 in 10.0 mi ESE 3.5 mph - N/A   Scattered Clouds
10:35 PM 59.0 °F - 41.0 °F 51% 30.13 in 10.0 mi ESE 4.6 mph - N/A   Scattered Clouds
10:55 PM 59.0 °F - 41.0 °F 51% 30.12 in 10.0 mi ESE 5.8 mph - N/A   Clear
11:15 PM 59.0 °F - 41.0 °F 51% 30.12 in 10.0 mi ESE 4.6 mph - N/A   Clear
11:35 PM 59.0 °F - 42.8 °F 55% 30.11 in 10.0 mi ESE 4.6 mph - N/A   Clear
11:55 PM 55.4 °F - 41.0 °F 58% 30.10 in 10.0 mi SE 3.5 mph - N/A   Clear